Time,TemperatureF,DewpointF,PressureIn,WindDirection,WindDirectionDegrees,WindSpeedMPH,WindSpeedGustMPH,Humidity,HourlyPrecipIn,Conditions,Clouds,dailyrainin,SoftwareType,DateUTC
2013-04-02 00:33:00,32.0,16.0,30.08,North,-999,-999.0,-999.0,50,-99.99,,,-99.99,,2013-04-02 04:33:00,
2013-04-02 00:43:00,32.0,16.0,30.08,North,-999,-999.0,-999.0,50,-99.99,,,-99.99,,2013-04-02 04:43:00,
2013-04-02 01:22:00,32.0,17.0,30.08,North,-999,-999.0,-999.0,55,-99.99,,,-99.99,,2013-04-02 05:22:00,
2013-04-02 01:32:00,32.0,17.0,30.08,North,-999,-999.0,-999.0,55,-99.99,,,-99.99,,2013-04-02 05:32:00,
2013-04-02 01:43:00,32.0,17.0,30.08,North,-999,-999.0,-999.0,55,-99.99,,,-99.99,,2013-04-02 05:43:00,
2013-04-02 02:32:00,31.0,18.0,30.09,North,-999,-999.0,-999.0,58,-99.99,,,-99.99,,2013-04-02 06:32:00,
2013-04-02 02:42:00,31.0,18.0,30.09,North,-999,-999.0,-999.0,58,-99.99,,,-99.99,,2013-04-02 06:42:00,
2013-04-02 03:32:00,30.0,16.0,30.09,North,-999,-999.0,-999.0,55,-99.99,,,-99.99,,2013-04-02 07:32:00,
2013-04-02 03:43:00,30.0,16.0,30.09,North,-999,-999.0,-999.0,55,-99.99,,,-99.99,,2013-04-02 07:43:00,
2013-04-02 04:22:00,30.0,12.0,30.09,North,-999,-999.0,-999.0,48,-99.99,,,-99.99,,2013-04-02 08:22:00,
2013-04-02 04:32:00,30.0,12.0,30.09,North,-999,-999.0,-999.0,48,-99.99,,,-99.99,,2013-04-02 08:32:00,
2013-04-02 04:42:00,30.0,12.0,30.09,North,-999,-999.0,-999.0,48,-99.99,,,-99.99,,2013-04-02 08:42:00,
2013-04-02 05:22:00,28.0,11.0,30.09,North,-999,-999.0,-999.0,48,-99.99,,,-99.99,,2013-04-02 09:22:00,
2013-04-02 05:33:00,28.0,11.0,30.09,North,-999,-999.0,-999.0,48,-99.99,,,-99.99,,2013-04-02 09:33:00,
2013-04-02 05:43:00,28.0,11.0,30.09,North,-999,-999.0,-999.0,48,-99.99,,,-99.99,,2013-04-02 09:43:00,
2013-04-02 06:24:00,28.0,12.0,30.10,North,-999,-999.0,-999.0,50,-99.99,,,-99.99,,2013-04-02 10:24:00,
2013-04-02 06:33:00,28.0,12.0,30.10,North,-999,-999.0,-999.0,50,-99.99,,,-99.99,,2013-04-02 10:33:00,
2013-04-02 06:42:00,28.0,12.0,30.10,North,-999,-999.0,-999.0,50,-99.99,,,-99.99,,2013-04-02 10:42:00,
2013-04-02 07:33:00,29.0,13.0,30.11,North,-999,-999.0,-999.0,52,-99.99,,,-99.99,,2013-04-02 11:33:00,
2013-04-02 07:43:00,29.0,13.0,30.11,North,-999,-999.0,-999.0,52,-99.99,,,-99.99,,2013-04-02 11:43:00,
2013-04-02 08:32:00,28.0,17.0,30.14,North,-999,-999.0,-999.0,62,-99.99,,,-99.99,,2013-04-02 12:32:00,
2013-04-02 08:42:00,28.0,17.0,30.14,North,-999,-999.0,-999.0,62,-99.99,,,-99.99,,2013-04-02 12:42:00,
2013-04-02 09:23:00,27.0,26.0,30.17,North,-999,-999.0,-999.0,97,-99.99,,,-99.99,,2013-04-02 13:23:00,
2013-04-02 09:33:00,27.0,26.0,30.17,North,-999,-999.0,-999.0,97,-99.99,,,-99.99,,2013-04-02 13:33:00,
2013-04-02 09:42:00,27.0,26.0,30.17,North,-999,-999.0,-999.0,97,-99.99,,,-99.99,,2013-04-02 13:42:00,
2013-04-02 10:23:00,31.0,23.0,30.17,North,-999,-999.0,-999.0,72,-99.99,,,-99.99,,2013-04-02 14:23:00,
2013-04-02 10:33:00,31.0,23.0,30.17,North,-999,-999.0,-999.0,72,-99.99,,,-99.99,,2013-04-02 14:33:00,
2013-04-02 10:42:00,31.0,23.0,30.17,North,-999,-999.0,-999.0,72,-99.99,,,-99.99,,2013-04-02 14:42:00,
2013-04-02 11:33:00,33.0,22.0,30.18,North,-999,-999.0,-999.0,65,-99.99,,,-99.99,,2013-04-02 15:33:00,
2013-04-02 11:43:00,33.0,22.0,30.18,North,-999,-999.0,-999.0,65,-99.99,,,-99.99,,2013-04-02 15:43:00,
2013-04-02 12:25:00,33.0,19.0,30.20,North,-999,-999.0,-999.0,56,-99.99,,,-99.99,,2013-04-02 16:25:00,
2013-04-02 12:38:00,33.0,19.0,30.20,North,-999,-999.0,-999.0,56,-99.99,,,-99.99,,2013-04-02 16:38:00,
2013-04-02 12:44:00,33.0,19.0,30.20,North,-999,-999.0,-999.0,56,-99.99,,,-99.99,,2013-04-02 16:44:00,
2013-04-02 13:35:00,36.0,10.0,30.19,North,-999,-999.0,-999.0,34,-99.99,,,-99.99,,2013-04-02 17:35:00,
2013-04-02 13:43:00,36.0,10.0,30.19,North,-999,-999.0,-999.0,34,-99.99,,,-99.99,,2013-04-02 17:43:00,
2013-04-02 14:35:00,36.0,11.0,30.19,North,-999,-999.0,-999.0,34,-99.99,,,-99.99,,2013-04-02 18:35:00,
2013-04-02 14:43:00,36.0,11.0,30.19,North,-999,-999.0,-999.0,34,-99.99,,,-99.99,,2013-04-02 18:43:00,
2013-04-02 15:23:00,36.0,12.0,30.18,North,-999,-999.0,-999.0,37,-99.99,,,-99.99,,2013-04-02 19:23:00,
2013-04-02 15:34:00,36.0,12.0,30.18,North,-999,-999.0,-999.0,37,-99.99,,,-99.99,,2013-04-02 19:34:00,
2013-04-02 15:45:00,36.0,12.0,30.18,North,-999,-999.0,-999.0,37,-99.99,,,-99.99,,2013-04-02 19:45:00,
2013-04-02 16:34:00,40.0,12.0,30.17,North,-999,-999.0,-999.0,32,-99.99,,,-99.99,,2013-04-02 20:34:00,
2013-04-02 16:44:00,40.0,12.0,30.17,North,-999,-999.0,-999.0,32,-99.99,,,-99.99,,2013-04-02 20:44:00,
2013-04-02 17:23:00,40.0,12.0,30.15,North,-999,-999.0,-999.0,32,-99.99,,,-99.99,,2013-04-02 21:23:00,
2013-04-02 17:35:00,40.0,12.0,30.15,North,-999,-999.0,-999.0,32,-99.99,,,-99.99,,2013-04-02 21:35:00,
2013-04-02 17:44:00,40.0,12.0,30.15,North,-999,-999.0,-999.0,32,-99.99,,,-99.99,,2013-04-02 21:44:00,
2013-04-02 18:25:00,40.0,13.0,30.16,North,-999,-999.0,-999.0,33,-99.99,,,-99.99,,2013-04-02 22:25:00,
2013-04-02 18:33:00,40.0,13.0,30.16,North,-999,-999.0,-999.0,33,-99.99,,,-99.99,,2013-04-02 22:33:00,
2013-04-02 19:24:00,39.0,13.0,30.16,North,-999,-999.0,-999.0,33,-99.99,,,-99.99,,2013-04-02 23:24:00,
2013-04-02 19:35:00,39.0,13.0,30.16,North,-999,-999.0,-999.0,33,-99.99,,,-99.99,,2013-04-02 23:35:00,
2013-04-02 19:43:00,39.0,13.0,30.16,North,-999,-999.0,-999.0,33,-99.99,,,-99.99,,2013-04-02 23:43:00,
2013-04-02 19:47:00,38.0,14.0,30.16,North,-999,-999.0,-999.0,37,-99.99,,,-99.99,,2013-04-02 23:47:00,
2013-04-02 20:34:00,38.0,14.0,30.16,North,-999,-999.0,-999.0,37,-99.99,,,-99.99,,2013-04-03 00:34:00,
2013-04-02 21:33:00,37.0,13.0,30.16,North,-999,-999.0,-999.0,38,-99.99,,,-99.99,,2013-04-03 01:33:00,
2013-04-02 21:42:00,37.0,13.0,30.16,North,-999,-999.0,-999.0,38,-99.99,,,-99.99,,2013-04-03 01:42:00,
2013-04-02 22:25:00,36.0,15.0,30.18,North,-999,-999.0,-999.0,41,-99.99,,,-99.99,,2013-04-03 02:25:00,
2013-04-02 22:34:00,36.0,15.0,30.18,North,-999,-999.0,-999.0,41,-99.99,,,-99.99,,2013-04-03 02:34:00,
2013-04-02 22:44:00,36.0,15.0,30.18,North,-999,-999.0,-999.0,41,-99.99,,,-99.99,,2013-04-03 02:44:00,
2013-04-02 23:38:00,36.0,19.0,30.20,North,-999,-999.0,-999.0,50,-99.99,,,-99.99,,2013-04-03 03:38:00,
2013-04-02 23:44:00,36.0,19.0,30.20,North,-999,-999.0,-999.0,50,-99.99,,,-99.99,,2013-04-03 03:44:00,